Regional Weather Roundup
Issued by NWS

Home | Current Version | Previous Version | Graphics & Text | Print | Product List | Glossary On
Versions: 1 2 3 4 5 6 7 8 9 10 11 12 13 14 15 16 17 18 19 20 21 22 23 24 25 26 27 28 29 30 31 32 33 34 35 36 37 38 39 40 41 42 43 44 45 46 47 48 49 50
000
ASUS45 KCYS 241910
RWRWY

WYOMING REGIONAL WEATHER ROUNDUP
NATIONAL WEATHER SERVICE CHEYENNE WY
1200 PM MST FRI NOV 24 2017

NOTE:  "FAIR" INDICATES FEW OR NO CLOUDS BELOW 12,000 FEET
WITH NO SIGNIFICANT WEATHER AND/OR OBSTRUCTIONS TO VISIBILITY.

WYZ001-242000-
YELLOWSTONE NATIONAL PARK

CITY           SKY/WX    TMP DP  RH WIND       PRES   REMARKS
LK YELLOWSTONE   N/A     37  20  50 W12G24    30.02S WCI  29
W YELLOWSTONE  NOT AVBL

$$
WYZ002>013-054>058-071-098>099-242000-
NORTHERN WYOMING

CITY           SKY/WX    TMP DP  RH WIND       PRES   REMARKS
JACKSON        CLOUDY    42  37  82 CALM      30.03R
CODY           FAIR      50  33  52 SE7       29.90F
GREYBULL       FAIR      54  16  22 NW14      29.87F
WORLAND        CLOUDY    50  26  39 W5        29.91R
SHERIDAN       FAIR      51  22  31 N16       29.90F
BUFFALO        FAIR      46  14  27 N20G31    29.91R
GILLETTE       FAIR      49  24  37 NW25      29.87F
HULETT         FAIR      46  27  46 NW18G31   29.88S
NEWCASTLE      FAIR      46  27  46 NW23G32   29.88R

$$
WYZ014>020-022>026-101>103-242000-
CENTRAL WYOMING

CITY           SKY/WX    TMP DP  RH WIND       PRES   REMARKS
BIG PINEY      CLOUDY    42  35  76 NW9       30.03S
PINEDALE       CLOUDY    37  36  93 NW14      30.04F WCI  29
DUBOIS         MOCLDY    37  32  81 W16       29.96F WCI  28
LANDER         RAIN      43  38  82 NW7G30    29.94R
RIVERTON       LGT RAIN  43  41  93 W8        29.93S
CASPER         CLOUDY    47  39  74 SW8       29.92F
DOUGLAS        CLOUDY    44  42  93 W7        29.95S

$$
WYZ021-027>030-104>119-242000-
SOUTHERN WYOMING

CITY           SKY/WX    TMP DP  RH WIND       PRES   REMARKS
EVANSTON       FAIR      51  30  44 W26G38    30.07F
KEMMERER       FAIR      45  30  57 W23G30    30.05S
FORT BRIDGER   MOCLDY    53  30  42 W28G36    30.09S
ROCK SPRINGS   PTSUNNY   52  29  41 W32G45    30.02R
DIXON          FAIR      55  32  41 W14       30.02F
RAWLINS        LGT RAIN  51  27  39 W30G41    29.96S
SARATOGA       MOCLDY    50  32  50 NW16G32   29.99S
LARAMIE        FAIR      53  28  38 W30G40    29.94S
CHEYENNE       FAIR      61  29  29 NW25G37   29.90R
TORRINGTON     FAIR      55  38  52 NW28G40   29.87F
PINE BLUFFS    FAIR      57  32  38 N17G26    29.90S

$$



USA.gov is the U.S. government's official web portal to all federal, state and local government web resources and services.